Terminal Aerodrome Forecast
Issued by NWS

Home | Current Version | Previous Version | Text Only | Print | Product List | Glossary Off
Versions: 1 2 3 4 5 6 7 8 9 10 11 12 13 14

000
FTUS43 KICT 011125
TAFCNU
TAF
KCNU 011125Z 0112/0212 05006KT P6SM SKC
     FM011300 11009KT P6SM SCT120
     FM011600 15011KT P6SM SCT120=

USA.gov is the U.S. government's official web portal to all federal, state and local government web resources and services.